Location: Moscow
(38.8570°N, 84.2291°W)
Time: 12:03:22
(UTC+00:00)

Gurwin Techsat 1B - Visible Passes

Search period start: 15 March 2026 00:00
Search period end: 25 March 2026 00:00
Orbit: 809 x 812 km, 99.0° (Epoch: 14 March)

Date Brightness Start Highest point End Pass type
(mag) Time Alt. Az. Time Alt. Az. Time Alt. Az.
15 Mar 11.6 09:16:32 10° ENE 09:17:57 11° E 09:19:22 10° ESE visible
15 Mar 8.6 10:53:03 10° NNE 10:58:22 82° WNW 11:03:39 10° SSW visible
16 Mar 9.2 10:29:32 10° NNE 10:34:48 61° ESE 10:40:01 10° S visible
17 Mar 10.2 10:06:17 10° NNE 10:11:08 36° E 10:15:58 10° SSE visible
18 Mar 11.0 09:43:23 10° NE 09:47:24 22° E 09:51:24 10° SE visible
19 Mar 11.5 09:21:22 10° ENE 09:23:35 13° E 09:25:46 10° ESE visible
19 Mar 8.6 10:58:38 10° N 11:03:56 74° WNW 11:09:12 10° SSW visible
20 Mar 9.0 10:35:04 10° NNE 10:40:22 68° ESE 10:45:38 10° S visible
21 Mar 10.0 10:11:45 10° NNE 10:16:44 40° E 10:21:40 10° SSE visible
22 Mar 10.9 09:48:45 10° NE 09:53:00 24° E 09:57:13 10° SSE visible
23 Mar 11.5 09:26:26 10° ENE 09:29:11 14° E 09:31:56 10° ESE visible
23 Mar 8.6 11:04:13 10° N 11:09:28 66° WNW 11:14:42 10° SSW visible
24 Mar 8.9 10:40:36 10° NNE 10:45:55 75° ESE 10:51:13 10° S visible
